Location: Asheville, NC
(35.6000°N, 82.5500°W)
Time: 00:30:33
(UTC-04:00)

Vanguard 1 - Pass Details

Date: 17 March 2018
Orbit: 650 x 3833 km, 34.3° (Epoch: 24 June)

Event Time Altitude Azimuth Distance (km) Brightness Sun altitude
Rises 14:00:45 0° 283° (WNW) 7,954 14.7 52.9°
Reaches altitude 10° 14:06:16 10° 282° (WNW) 6,935 14.5 52.7°
Maximum altitude 14:28:59 70° 205° (SSW) 3,226 14.5 51.4°
Drops below altitude 10° 14:43:08 10° 124° (SE) 4,609 13.7 50.3°
Sets 14:45:59 0° 122° (ESE) 5,276 13.9 50.0°
